24.04.2024;03:00;11
24.04.2024;02:00;11
24.04.2024;01:00;13
24.04.2024;00:00;14
23.04.2024;23:00;27
23.04.2024;22:00;37
23.04.2024;21:00;32
23.04.2024;20:00;30
23.04.2024;19:00;26
23.04.2024;18:00;18
23.04.2024;17:00;17
23.04.2024;16:00;20
23.04.2024;15:00;19
23.04.2024;14:00;24
23.04.2024;13:00;#
23.04.2024;12:00;#
23.04.2024;11:00;#
23.04.2024;10:00;#
23.04.2024;09:00;#
23.04.2024;08:00;28
23.04.2024;07:00;20
23.04.2024;06:00;14
23.04.2024;05:00;16
23.04.2024;04:00;8
23.04.2024;03:00;8
23.04.2024;02:00;7
23.04.2024;01:00;10
23.04.2024;00:00;13
22.04.2024;23:00;13
22.04.2024;22:00;11
22.04.2024;21:00;12
22.04.2024;20:00;12
22.04.2024;19:00;15
22.04.2024;18:00;14
22.04.2024;17:00;13
22.04.2024;16:00;11
22.04.2024;15:00;10
22.04.2024;14:00;10
22.04.2024;13:00;9
22.04.2024;12:00;11
22.04.2024;11:00;14
22.04.2024;10:00;19
22.04.2024;09:00;22
22.04.2024;08:00;20
22.04.2024;07:00;16
22.04.2024;06:00;9
22.04.2024;05:00;8
22.04.2024;04:00;4
